Theta_e
355 352 354 354 353 353 355 353 351 353 354 352 350 349 347 348 346 344 340 343 343 355 357 356 362 364 364 365 364 361 359 357 355 352 350 353 351 347 346 346 345 345 343 342 342 341 339 339 338 338 337 336 336 339 339 339 339 337 336 335 335 334 334 332 331 329 328 328 328 328 328 327 326 327
356 354 351 352 351 353 353 351 352 353 355 354 351 351 351 353 348 347 344 344 347 352 355 357 359 364 364 362 361 362 359 357 354 355 352 352 351 347 346 345 344 344 344 343 341 340 340 339 339 339 339 338 337 337 337 337 335 334 333 332 333 333 333 331 329 327 326 327 327 327 327 326 326 326
353 354 351 351 349 350 350 351 350 352 353 353 353 353 354 354 355 353 350 344 349 356 348 351 357 360 364 360 361 359 360 357 354 355 355 353 351 348 346 345 343 343 342 342 342 341 341 340 340 339 337 338 338 336 335 334 332 330 331 330 330 331 330 328 327 326 327 326 326 326 326 326 327 326
357 355 352 352 351 351 351 351 349 349 352 354 352 354 355 356 357 355 353 350 347 352 350 353 358 363 364 363 360 361 359 358 353 358 355 354 351 347 348 344 343 342 341 341 341 342 342 340 339 338 337 337 338 337 334 332 331 331 331 330 329 331 329 327 327 327 327 326 326 325 325 325 325 326
356 357 355 355 354 355 352 350 349 348 348 350 353 355 354 353 357 355 355 350 347 351 352 353 358 362 362 359 360 358 360 359 356 354 356 355 349 349 348 347 342 341 340 340 339 339 341 341 338 338 337 338 337 336 334 333 332 332 331 330 329 329 328 327 327 327 326 325 325 324 324 325 326 327
359 356 357 358 356 356 354 352 349 348 346 346 347 351 351 353 353 354 350 349 346 345 350 348 361 358 361 358 361 358 357 359 357 354 354 354 351 349 349 347 345 340 340 339 338 337 338 339 339 338 337 337 337 335 334 332 331 331 330 329 330 329 326 326 326 324 325 325 324 324 324 326 326 326
361 360 359 357 359 356 354 353 353 350 347 346 346 348 349 351 351 351 352 350 349 346 347 351 351 359 361 358 360 360 358 359 356 353 351 351 351 350 349 349 348 339 339 337 336 335 335 336 337 338 338 337 335 333 333 332 331 331 330 328 328 329 327 327 326 325 325 324 324 324 324 326 325 325
360 362 360 359 358 359 357 355 355 354 351 349 349 348 350 351 351 352 352 353 354 352 347 351 350 359 361 361 362 362 358 357 355 353 353 352 349 348 348 348 348 342 338 337 336 335 334 334 334 334 335 335 335 333 331 327 327 326 326 326 327 328 328 327 326 327 325 324 325 324 323 324 325 324
360 359 359 358 359 358 355 357 355 354 353 351 350 348 350 350 351 353 355 355 354 355 351 351 354 360 362 362 360 360 355 355 354 355 352 351 349 348 347 348 345 342 337 337 335 334 334 333 332 332 331 331 330 327 326 326 325 324 324 325 326 326 326 325 326 326 326 326 326 326 326 326 326 325
358 357 358 357 357 358 356 357 357 358 357 354 352 352 352 352 353 355 359 359 358 360 356 354 352 360 358 358 359 359 357 353 349 351 351 351 350 348 346 346 344 344 341 340 338 335 334 332 331 331 330 329 327 326 326 325 324 323 323 323 323 323 324 323 323 323 323 324 325 326 326 326 326 326
357 359 357 358 360 361 361 359 358 358 359 358 357 356 356 356 357 355 355 358 360 359 356 354 354 355 358 359 355 358 359 355 351 346 345 343 345 345 345 343 343 342 340 340 339 337 336 335 334 330 328 327 326 326 326 325 325 323 322 321 322 322 322 322 321 321 321 322 322 322 324 325 326 325
357 358 359 361 362 362 363 363 363 362 359 360 358 357 353 356 357 358 356 356 358 359 357 353 352 353 355 358 359 358 355 351 351 348 344 340 339 340 344 343 340 341 340 338 337 337 336 335 333 330 329 328 327 327 326 326 326 325 322 321 322 322 321 321 321 321 320 320 320 319 319 321 324 325
357 358 358 359 360 362 364 365 365 365 365 362 359 361 362 361 359 358 359 358 358 357 357 355 356 354 355 358 355 350 347 345 344 347 345 343 343 341 339 340 341 343 339 338 338 335 334 332 331 331 331 330 328 328 327 326 326 325 322 321 322 322 321 320 320 320 320 319 319 318 318 317 319 322
357 358 359 359 359 363 365 364 361 358 356 355 358 359 361 363 362 360 359 358 354 350 354 355 354 351 350 353 355 350 349 349 350 348 344 341 343 342 338 338 338 340 339 337 336 335 334 332 331 330 328 329 327 325 322 323 323 324 322 322 321 321 321 320 319 319 319 319 319 318 318 317 317 317
357 356 355 359 359 362 361 362 356 356 355 354 352 351 351 355 359 357 355 355 353 351 355 350 352 351 350 351 355 352 349 350 348 348 347 344 344 338 332 330 336 341 339 336 334 333 335 333 330 330 328 327 324 321 318 322 322 323 322 321 321 321 320 320 320 319 318 318 318 318 317 317 317 316
355 356 354 359 361 360 360 362 362 358 355 351 351 351 350 349 348 349 355 356 353 353 348 351 349 349 351 350 355 353 353 352 350 348 348 346 342 339 334 335 334 338 339 334 332 331 335 333 331 328 326 323 322 320 320 322 322 322 322 321 321 320 320 320 319 319 319 318 318 317 317 317 317 316
360 357 356 354 357 358 356 358 359 359 359 359 354 350 350 350 349 343 342 346 355 355 355 349 349 348 351 351 351 357 356 358 353 349 346 346 344 342 337 339 340 342 339 337 333 329 333 334 331 327 323 321 321 319 324 323 322 321 321 321 320 320 320 319 319 319 318 318 317 317 316 317 316 315
358 358 355 355 355 357 358 358 358 358 358 357 356 359 362 361 359 352 346 344 345 350 356 356 352 355 355 351 355 362 362 355 353 350 347 348 345 342 340 344 344 346 338 334 331 329 330 331 328 326 322 322 320 323 321 320 321 321 320 320 320 319 319 319 319 318 318 317 316 316 316 316 315 315
356 358 357 356 355 356 355 356 359 357 357 358 357 356 355 358 359 360 361 362 362 361 360 359 358 358 359 362 360 359 363 355 355 355 354 352 351 350 348 346 346 344 339 337 333 325 329 330 326 324 322 321 319 321 319 319 320 320 319 319 319 319 319 318 318 317 317 316 316 315 315 315 315 315
359 359 357 352 357 353 356 354 354 355 358 357 355 353 353 355 357 357 357 348 352 363 365 365 363 362 361 351 364 365 363 359 357 357 359 354 349 346 341 338 337 336 336 339 334 330 328 329 326 324 322 320 319 320 319 320 320 320 319 318 318 318 317 317 317 316 316 315 315 314 314 314 314 314
358 359 359 359 356 356 357 343 328 336 350 353 352 352 352 353 355 354 357 346 337 337 336 337 339 338 336 335 333 331 332 345 351 360 357 346 345 338 335 337 336 334 336 336 337 333 330 327 323 320 321 320 318 318 318 318 319 318 318 317 317 317 316 316 316 315 315 314 314 313 313 312 313 314
357 359 354 355 356 354 357 326 324 327 345 350 351 352 353 352 353 353 356 357 355 336 332 333 334 334 335 335 334 334 331 330 337 347 346 348 344 339 336 335 336 337 338 336 338 334 328 322 325 320 319 319 320 318 317 317 318 318 316 316 316 316 315 315 315 314 314 313 313 312 312 311 312 314
355 355 354 353 349 345 332 317 319 321 336 346 348 350 349 348 350 352 356 355 354 356 359 359 356 352 346 353 355 354 343 337 337 348 347 348 342 338 339 338 339 337 338 340 340 332 328 322 322 319 313 311 315 318 317 316 317 317 317 317 316 315 315 315 314 313 313 313 313 312 311 310 311 313
352 352 353 346 327 322 319 317 315 316 316 333 341 342 343 343 346 351 349 351 351 351 351 351 353 354 355 356 355 353 352 352 349 349 348 346 344 340 337 337 338 334 337 337 337 334 330 324 320 323 318 312 307 314 317 314 315 316 316 316 315 315 315 315 313 312 312 312 312 311 311 310 311 314
346 347 349 349 330 320 318 315 311 310 312 318 331 338 339 342 337 333 340 343 344 346 346 347 348 349 351 352 352 351 351 349 349 350 346 346 345 341 338 338 339 338 342 339 332 337 327 321 318 319 317 318 314 311 314 313 314 315 316 315 313 314 315 314 314 314 311 311 310 310 310 310 310 314
344 345 346 345 332 318 317 313 309 307 309 314 327 335 322 316 319 334 337 339 340 341 343 343 343 344 347 347 349 349 350 352 350 351 352 346 345 344 344 342 339 338 340 338 327 334 328 319 319 315 316 314 311 313 309 310 312 313 315 315 314 313 314 314 314 314 314 314 314 311 311 309 311 311
341 342 344 340 330 316 309 306 307 308 309 317 329 312 312 315 316 324 336 338 338 339 340 340 341 341 343 343 345 347 349 351 354 356 355 352 348 346 345 347 349 348 348 341 331 333 327 323 323 316 313 313 311 311 310 307 308 313 313 313 313 314 316 315 314 314 314 315 314 313 311 310 311 311
341 339 340 333 313 308 304 304 307 310 315 325 314 312 315 317 322 332 337 337 337 337 337 337 337 339 341 342 343 344 345 343 344 344 347 349 347 347 347 346 345 346 346 333 330 331 328 324 321 320 317 312 309 306 305 310 311 310 309 311 313 314 315 316 315 316 316 315 315 315 313 312 313 314
340 325 313 310 310 310 309 309 311 315 321 317 315 317 319 328 334 337 337 336 336 335 335 336 337 338 339 339 340 339 337 339 340 341 342 344 346 347 346 346 346 346 345 332 330 330 329 326 321 320 317 314 311 311 309 306 308 309 311 310 309 313 314 315 315 314 316 316 314 314 313 313 313 314
325 319 315 312 313 316 320 331 335 334 333 327 327 327 331 335 335 334 334 333 333 332 332 333 333 334 334 334 335 336 337 337 337 338 339 339 340 342 342 343 341 344 342 331 332 329 328 326 322 319 316 315 315 311 309 307 307 309 312 311 311 314 315 314 314 314 315 314 314 314 315 314 314 315
334 333 329 330 323 321 322 324 327 327 330 333 334 333 333 333 332 332 332 331 331 331 330 329 329 330 332 333 333 333 332 332 333 335 333 333 334 336 338 336 337 334 330 331 330 328 327 325 321 318 314 313 314 313 311 310 308 307 309 311 311 305 309 312 313 313 314 315 315 315 317 315 315 317
334 334 332 330 333 335 335 333 334 333 333 332 332 333 332 331 331 330 329 329 332 332 330 329 330 329 331 328 329 330 330 330 331 332 331 330 330 331 331 330 328 323 321 323 325 327 326 324 320 319 317 314 310 310 312 310 308 306 307 310 311 311 312 310 311 313 314 315 315 314 316 314 314 315
332 334 333 334 334 334 331 331 333 332 333 333 334 334 334 332 331 330 329 328 328 328 327 326 326 327 328 328 329 328 328 330 329 332 329 330 329 331 331 326 321 319 316 315 316 317 318 319 320 319 318 316 314 312 309 307 309 310 309 308 308 308 310 311 312 312 314 314 314 314 315 316 315 315
330 333 333 335 334 335 334 333 333 333 333 334 334 335 330 332 331 329 329 329 328 328 328 328 327 327 327 326 326 326 326 327 327 329 326 328 328 326 324 321 319 318 317 314 313 314 315 315 316 317 318 317 317 316 313 309 308 309 311 309 308 308 310 311 311 312 313 314 314 312 313 315 315 315
331 334 333 333 334 333 333 332 332 333 333 331 331 331 332 331 329 328 329 328 327 328 329 329 329 327 327 326 326 325 325 325 326 327 328 328 327 324 322 319 317 316 314 312 311 312 313 312 312 310 310 310 310 312 312 316 311 310 311 311 310 310 310 311 310 311 313 315 315 313 312 314 314 314
333 334 333 332 332 331 330 330 331 330 331 331 331 330 329 329 329 329 329 327 328 329 328 328 328 327 326 326 327 326 326 325 326 326 326 325 324 322 321 320 318 316 314 312 312 313 313 312 312 309 306 306 306 305 306 311 312 311 308 307 309 310 311 311 311 312 313 313 314 313 310 310 312 314
332 333 332 331 332 331 329 329 329 329 330 330 330 329 329 328 329 330 330 328 328 328 327 327 327 327 327 326 326 326 326 326 325 325 324 324 323 321 319 318 317 316 314 313 313 313 313 312 312 309 307 305 305 305 306 310 311 313 313 308 308 310 311 311 310 310 312 313 312 312 312 312 312 313
331 331 330 330 330 330 330 330 329 329 330 329 330 330 329 330 330 331 332 330 328 327 327 327 327 327 328 327 326 326 326 326 325 324 323 324 323 321 320 318 317 316 315 314 314 314 314 313 312 311 309 308 307 308 307 309 310 310 313 313 309 309 311 311 309 309 312 314 313 315 315 313 313 314
331 330 330 330 330 330 331 330 329 329 330 329 328 328 330 329 329 330 329 328 328 327 328 328 327 326 327 328 326 327 326 325 324 323 323 323 323 321 320 319 318 317 316 314 315 314 315 313 313 313 312 311 311 311 312 308 307 310 311 310 312 310 310 311 311 312 312 312 312 316 317 317 317 318
331 331 331 330 331 331 331 332 330 330 329 329 328 329 328 328 329 329 328 328 328 328 328 327 327 325 327 327 326 327 326 325 324 323 323 323 323 322 320 320 319 318 316 315 314 314 314 314 315 316 316 317 319 319 314 312 312 312 312 312 311 313 313 314 313 313 313 311 312 313 312 314 314 319
331 330 331 332 332 332 331 331 331 330 330 330 331 330 330 330 329 329 329 328 327 328 328 328 327 327 327 326 327 325 325 325 324 324 324 323 321 322 321 320 319 319 317 315 315 315 315 317 320 320 321 320 321 320 314 311 309 311 311 311 310 311 313 315 319 315 313 314 313 312 311 311 312 314
332 332 332 332 332 332 332 333 333 332 331 330 329 331 331 331 330 326 326 325 327 329 327 327 327 326 326 325 326 324 324 323 323 324 323 324 323 321 320 321 320 319 318 315 315 315 319 322 322 321 321 319 317 314 312 312 311 313 314 313 313 311 311 311 312 313 326 318 313 311 312 313 314 312
331 332 331 332 333 333 333 333 333 333 332 333 332 332 330 329 329 329 329 329 330 328 327 327 327 327 326 326 326 325 324 324 324 324 323 323 323 322 320 321 322 321 320 320 320 319 319 320 321 320 318 317 316 317 315 315 317 316 316 315 314 314 315 312 311 311 310 309 311 316 320 315 312 309
332 332 333 333 333 333 333 333 333 334 334 334 332 332 332 329 327 328 328 327 328 327 327 326 327 326 326 327 326 326 324 323 324 324 322 322 323 323 323 322 322 322 322 320 319 319 319 317 318 318 316 315 316 316 316 317 316 317 317 317 318 317 314 315 316 314 313 313 311 310 310 311 313 313
335 334 334 334 333 333 333 333 333 334 333 333 332 331 331 330 329 328 327 328 328 329 328 327 327 327 327 325 325 324 324 322 319 320 320 322 322 322 321 323 322 323 322 321 319 318 319 318 318 318 317 317 317 317 317 317 317 318 318 319 318 319 316 315 313 315 316 317 315 312 313 313 313 312
Wind_Speed
8 8 9 7 7 7 6 6 7 6 5 6 7 7 7 6 6 6 8 5 6 6 3 2 5 7 7 6 6 7 7 9 14 8 9 7 9 12 12 11 11 11 12 12 12 12 11 11 10 10 9 8 7 8 9 9 9 8 8 8 8 8 9 10 9 10 9 10 10 10 11 11 10 10
7 8 8 7 8 7 8 8 8 7 5 7 6 7 6 5 7 6 7 7 7 3 6 6 5 7 8 7 6 6 7 12 14 8 9 8 8 17 13 11 10 10 10 11 12 13 12 12 12 11 10 9 8 9 9 9 7 7 6 7 7 8 8 9 9 8 8 9 10 11 11 12 12 11
8 8 8 8 8 8 8 8 8 7 7 7 7 7 6 5 6 6 6 8 5 5 5 8 5 9 9 7 6 7 7 11 14 9 8 9 10 19 13 12 11 10 11 11 11 13 14 13 12 12 10 11 10 9 8 7 7 6 7 7 7 8 8 8 8 8 9 9 9 10 11 11 12 11
7 8 9 9 8 8 8 8 9 9 8 8 8 7 6 6 6 6 6 8 9 6 7 6 5 7 7 7 7 7 7 8 14 9 8 5 12 12 9 14 13 12 12 12 11 11 11 12 13 12 12 12 12 10 9 7 6 7 7 7 7 8 8 9 9 9 9 9 10 8 9 11 11 12
9 8 9 9 9 9 9 9 9 9 9 9 9 7 8 8 7 7 7 9 9 8 7 6 6 5 7 7 8 8 8 8 9 9 9 8 9 9 9 10 14 13 13 12 12 11 9 11 13 13 13 13 13 12 10 9 9 9 8 8 8 8 8 9 9 9 9 9 9 9 10 11 12 12
8 8 9 9 10 10 10 10 11 10 10 10 10 9 9 8 8 7 7 8 9 9 7 7 7 7 8 7 9 8 10 9 9 9 10 9 9 10 9 10 11 17 14 13 13 11 10 11 11 12 14 14 13 12 11 11 10 9 8 8 9 8 9 9 10 9 9 10 10 10 11 12 12 11
9 9 9 10 9 9 10 10 10 11 11 11 11 11 10 10 8 8 8 8 9 10 9 8 8 8 7 8 7 8 8 9 10 10 12 10 9 9 11 10 9 17 15 15 14 13 12 10 10 11 10 12 12 12 12 10 8 9 10 10 8 7 8 9 10 11 11 10 10 9 11 13 13 12
9 9 9 10 10 10 10 10 9 9 10 10 10 11 10 10 10 8 9 9 9 9 10 8 9 7 7 7 6 7 7 9 10 10 9 10 11 11 11 11 9 13 18 15 14 14 13 12 12 11 10 10 11 10 10 12 12 12 11 10 8 7 8 8 8 9 10 11 12 10 10 12 12 12
10 10 10 10 10 10 11 10 10 10 11 10 10 11 10 9 9 8 9 9 9 9 10 9 8 8 7 6 7 7 8 8 7 8 10 10 11 11 10 8 10 11 19 14 14 13 13 13 13 12 12 11 11 12 13 12 12 12 11 10 8 8 8 8 7 7 8 6 9 11 9 10 11 11
11 11 10 10 10 10 10 10 10 10 11 10 11 11 10 9 8 9 8 8 9 9 10 9 9 8 8 8 7 8 8 8 9 9 9 8 9 9 7 9 10 8 9 10 11 10 11 13 12 12 11 12 13 13 13 12 12 12 11 10 9 8 8 7 7 7 7 5 5 7 7 9 9 9
11 11 11 10 10 10 9 10 10 10 10 10 11 11 10 9 10 10 10 9 10 10 10 10 10 9 8 8 8 7 7 8 8 11 10 11 10 10 10 10 11 7 8 13 14 14 14 13 13 12 13 14 13 12 11 11 12 11 12 11 10 10 9 9 9 8 8 7 7 8 8 10 10 9
11 10 10 9 9 10 10 10 10 10 10 9 10 9 11 10 10 9 10 10 10 11 11 11 10 10 9 9 8 6 7 7 7 9 11 11 10 11 9 11 12 11 8 11 12 9 9 10 12 12 12 12 12 13 13 14 15 15 12 12 12 11 11 10 10 9 8 8 7 8 8 8 9 8
10 10 10 11 11 11 12 12 10 9 7 7 9 9 9 9 9 9 8 7 9 9 12 10 10 10 9 9 8 9 10 13 14 11 11 10 10 9 10 11 11 8 10 12 12 12 12 12 11 9 10 9 13 14 14 14 17 17 13 13 12 10 11 11 11 10 9 9 9 8 7 7 7 8
11 11 11 11 14 12 11 11 12 13 14 13 12 10 9 9 8 9 9 7 8 10 14 11 11 12 12 11 11 11 12 11 10 10 11 12 10 9 9 9 12 11 13 12 12 11 11 12 12 12 14 12 13 10 11 11 13 16 15 13 13 12 11 11 12 12 11 11 11 12 12 12 12 12
10 11 12 12 11 11 12 12 14 14 14 15 16 17 17 15 11 10 11 11 8 13 10 10 13 12 13 13 11 12 12 12 12 12 12 11 8 11 11 10 9 10 13 14 12 12 12 12 13 12 13 12 11 12 12 14 15 16 16 15 14 13 13 12 11 12 13 12 12 12 13 13 13 12
9 11 12 8 7 9 10 9 8 11 15 17 17 17 17 17 18 17 13 11 10 9 9 10 8 13 11 13 12 12 12 12 13 13 12 11 11 13 12 12 12 12 16 14 13 13 12 13 14 12 13 11 12 13 13 16 17 16 16 15 15 14 14 13 13 13 12 12 10 10 11 11 12 12
7 8 5 7 6 5 11 10 9 11 10 12 16 18 18 18 18 17 18 18 16 13 10 8 11 10 10 11 14 13 12 12 13 13 13 12 12 13 13 13 12 10 16 12 11 13 11 11 12 14 12 12 11 11 14 18 18 17 16 14 13 14 14 14 14 14 14 13 12 12 12 11 11 11
9 10 10 8 7 8 9 9 8 8 8 10 12 12 11 11 14 17 19 20 21 18 15 14 13 11 11 12 13 12 8 7 12 12 14 15 15 14 16 13 11 7 15 16 13 10 11 12 13 14 11 11 11 8 16 21 18 18 18 17 15 14 14 14 14 14 13 13 14 13 12 11 11 11
11 11 11 10 9 9 10 10 9 10 9 9 9 11 13 13 13 12 11 11 11 12 13 16 17 17 16 14 14 14 6 9 13 14 14 13 12 12 12 8 9 7 13 15 12 13 13 14 14 13 11 11 10 8 14 20 19 19 18 17 16 14 13 13 13 13 13 13 14 13 12 12 12 12
8 7 7 10 9 10 8 11 10 5 6 10 12 14 15 14 13 13 12 11 12 13 12 13 15 14 16 16 14 12 8 6 13 12 8 5 3 8 9 12 7 8 10 15 14 12 13 15 15 12 10 10 9 9 9 16 19 19 18 18 18 18 16 14 13 14 14 14 14 12 12 12 12 12
9 9 8 8 9 7 8 6 8 6 5 11 13 13 14 13 13 13 11 12 15 16 16 17 17 16 15 15 15 14 11 11 12 9 7 7 9 7 9 10 8 12 11 12 15 13 9 13 12 9 9 9 10 10 10 10 15 17 18 18 18 16 15 16 17 16 16 15 15 13 11 12 12 12
8 9 9 8 9 10 5 9 6 7 6 9 12 13 14 15 15 14 12 10 8 9 15 17 16 16 17 17 17 16 12 4 6 12 16 6 8 10 13 12 14 11 13 15 14 9 8 11 8 9 7 6 5 7 8 11 14 18 17 18 19 19 18 17 17 17 17 17 16 15 12 12 12 10
7 7 8 4 6 5 6 7 6 6 6 8 9 12 13 14 15 13 12 11 11 9 8 7 8 11 13 12 11 12 17 13 13 11 14 5 7 7 12 13 10 8 12 13 17 15 10 11 11 12 11 9 7 7 9 11 10 11 12 13 13 18 17 17 17 17 16 15 16 15 14 14 12 8
8 7 5 5 7 6 6 7 8 8 6 5 8 8 9 11 13 9 9 8 8 9 10 12 12 13 13 11 9 10 10 10 10 9 9 8 9 14 15 14 11 14 11 10 20 19 13 11 15 11 10 12 10 11 11 11 11 10 10 11 11 17 19 18 15 18 17 17 17 15 15 16 13 8
8 7 5 3 8 4 6 7 8 9 8 8 7 8 8 8 8 9 8 9 11 11 12 12 12 12 12 11 10 10 10 9 9 8 10 10 12 14 13 13 14 15 13 10 21 12 7 12 13 10 5 5 6 12 11 10 11 12 13 13 13 13 11 10 9 10 11 15 16 16 15 16 18 11
7 6 4 4 6 7 8 10 10 12 12 11 7 8 8 10 10 9 9 8 7 8 10 11 10 11 11 11 10 11 10 8 9 9 8 8 11 14 14 13 13 13 14 11 25 15 9 9 14 14 8 7 9 10 12 11 11 11 11 11 11 12 12 11 10 10 9 8 8 11 12 16 16 18
8 7 5 5 8 6 6 7 9 11 12 11 7 7 8 9 10 9 7 9 9 10 10 10 11 9 9 9 10 9 9 9 8 7 7 10 12 12 13 13 12 11 8 7 16 13 12 8 11 16 15 9 8 8 11 13 13 12 11 11 11 11 10 10 10 10 9 9 8 12 13 13 16 15
8 8 6 6 11 10 9 9 10 11 10 8 10 10 10 10 10 7 9 9 9 10 10 10 10 9 8 9 10 8 7 7 8 8 8 7 9 11 10 11 13 12 10 9 12 10 12 10 12 14 14 16 16 17 15 6 5 13 14 11 10 10 10 11 11 12 11 10 9 8 8 7 7 9
5 6 8 9 8 8 10 11 12 12 12 10 8 9 10 12 7 7 7 7 7 9 9 9 9 9 8 7 7 8 8 9 9 8 7 7 6 7 10 11 12 11 10 8 11 11 13 12 13 13 10 10 11 7 6 10 11 12 12 15 12 10 10 9 9 9 10 10 10 9 10 10 9 11
10 10 8 8 10 11 10 8 6 6 5 6 11 12 10 6 6 6 6 6 7 7 7 7 7 8 8 8 9 9 9 9 9 8 9 9 9 9 8 7 9 9 5 8 11 13 13 10 10 12 10 8 6 8 9 11 8 9 10 10 8 6 6 8 9 8 9 9 10 10 10 11 11 11
6 7 7 5 6 9 10 9 8 9 8 7 6 4 4 4 5 5 5 6 7 7 7 7 7 7 7 8 7 7 7 8 8 7 7 7 8 7 7 8 8 1 3 3 6 7 8 8 8 13 13 11 9 8 10 11 11 13 11 9 12 14 12 11 9 9 9 9 9 10 10 11 11 12
6 6 6 7 8 6 7 6 5 4 4 5 5 5 4 5 5 5 6 6 5 5 6 6 6 6 6 6 6 7 7 7 7 6 7 7 8 7 7 6 3 4 4 5 3 5 6 6 8 9 10 12 13 12 11 11 13 15 14 12 11 6 9 12 10 10 10 8 9 10 10 11 12 11
6 6 6 6 5 5 5 5 5 4 4 5 5 5 4 5 3 4 5 6 6 6 6 6 7 7 6 6 6 6 6 5 6 5 7 6 7 6 5 5 2 3 5 6 7 7 8 8 7 7 7 7 9 14 14 12 11 12 14 13 12 10 9 10 10 9 10 10 10 12 11 11 11 10
6 6 5 5 5 4 5 5 4 4 4 4 4 5 3 5 2 4 4 3 5 5 5 5 6 6 6 6 6 6 6 6 6 5 5 6 5 5 4 2 3 4 6 7 7 8 9 11 10 10 10 9 7 5 6 12 14 16 14 12 12 11 10 10 9 11 10 10 11 12 12 12 11 10
7 6 5 4 4 4 5 4 4 4 4 4 4 4 5 5 4 4 5 5 6 6 5 4 4 5 5 6 6 6 6 6 5 5 4 4 4 4 2 2 4 5 6 7 9 9 10 12 12 12 11 10 9 6 9 3 12 13 13 11 10 10 11 11 11 11 11 10 11 12 12 12 12 11
6 4 4 3 3 3 4 3 4 4 5 4 4 5 6 6 6 5 5 6 7 7 6 6 6 6 5 5 6 6 6 6 5 5 4 5 4 3 3 2 4 5 6 8 9 9 11 12 11 13 12 12 11 9 5 2 6 12 14 14 12 11 11 12 12 10 12 11 12 12 13 12 13 12
5 3 3 3 2 3 4 4 4 4 5 5 5 6 6 6 6 4 5 5 6 6 5 6 6 5 5 5 6 5 6 6 6 5 5 4 4 3 3 3 4 5 6 7 8 9 10 10 8 10 11 11 12 11 9 8 5 8 11 13 13 12 12 11 11 12 13 15 16 14 12 11 12 12
4 4 3 4 4 5 5 5 4 4 5 5 5 6 5 5 5 2 3 5 4 5 5 5 5 4 5 4 5 5 5 5 5 4 4 4 4 3 2 2 3 4 6 7 7 8 8 8 8 8 9 11 12 11 11 11 12 12 11 11 13 12 11 11 12 13 14 14 13 12 12 12 11 12
6 6 5 6 5 5 5 5 5 6 5 5 5 6 5 5 5 4 4 4 3 4 5 4 3 4 5 5 5 5 5 5 5 4 4 4 3 3 2 2 4 4 6 6 6 7 8 9 9 9 9 10 10 10 10 12 12 12 11 9 9 12 12 13 13 13 13 13 13 12 12 12 4 4
4 4 4 4 4 4 5 5 5 5 5 5 5 5 5 6 5 5 5 4 3 3 4 3 2 4 5 4 6 4 1 4 4 4 4 3 3 2 1 1 2 4 4 6 7 7 7 8 9 9 9 8 8 8 9 8 7 8 10 11 11 12 12 12 13 13 13 13 13 14 14 13 13 8
3 4 4 4 4 4 4 5 5 5 5 4 5 4 4 4 5 5 4 4 4 5 5 4 3 4 4 5 5 6 5 2 2 2 2 2 3 3 2 2 2 3 4 5 6 7 7 7 6 7 7 7 8 10 10 9 9 11 12 13 17 15 12 13 12 12 12 13 14 14 13 14 13 12
4 4 4 4 5 5 5 5 5 5 5 5 5 4 3 4 4 2 3 6 6 4 5 5 4 4 4 2 4 3 4 4 4 1 2 2 1 1 1 2 1 2 3 5 6 6 4 6 9 9 10 9 9 8 9 10 10 10 11 11 13 14 16 17 17 12 6 11 15 13 12 13 12 12
5 5 6 6 5 5 5 5 5 5 6 5 4 4 4 4 3 4 6 4 5 4 6 5 4 4 4 5 4 4 5 4 3 4 3 2 2 2 2 2 1 2 3 3 4 6 8 8 5 5 5 6 7 8 8 9 9 10 11 11 13 14 14 18 19 17 11 8 6 6 10 11 12 12
6 6 6 7 7 7 6 7 6 5 5 5 5 5 5 5 4 4 4 4 5 6 5 5 4 4 4 4 3 3 4 4 3 3 3 3 4 3 3 3 4 4 3 4 5 7 8 7 6 5 7 8 8 6 6 8 9 10 11 12 12 13 14 14 14 12 10 9 10 10 9 6 4 1
6 7 7 7 8 8 8 7 7 7 7 7 6 5 6 5 5 4 4 4 4 4 4 4 5 4 4 3 3 4 2 0 3 4 4 3 3 3 4 3 3 4 5 6 6 7 8 9 8 7 6 7 8 8 8 8 8 10 11 12 13 12 12 13 14 14 13 13 12 11 10 7 3 1
Wind_Direction
261 251 243 247 254 258 264 269 267 269 282 286 285 278 277 279 279 277 276 288 289 126 257 261 205 212 209 211 207 196 222 163 161 186 218 184 177 181 193 188 184 183 175 176 175 175 172 169 161 157 159 165 159 149 153 147 144 140 137 135 130 130 129 123 124 122 124 125 120 117 117 115 116 116
249 255 259 256 253 247 250 249 253 258 255 256 261 262 258 249 258 271 278 277 276 179 198 214 220 185 212 213 204 212 216 158 177 201 214 212 201 160 191 187 188 189 173 180 185 183 179 176 176 166 169 171 171 162 164 161 156 157 157 149 140 133 131 125 128 127 128 133 128 126 127 126 122 121
255 259 258 257 262 267 269 269 267 263 250 245 253 270 265 258 262 261 265 273 264 279 239 236 231 185 205 212 203 214 224 168 183 212 205 225 157 154 181 188 188 191 179 186 194 194 192 185 181 180 171 173 177 176 181 176 178 174 163 160 152 139 139 141 140 141 137 133 133 134 136 130 124 127
240 245 251 256 262 265 261 260 259 260 256 258 262 255 251 247 246 253 257 259 273 270 276 274 249 195 196 213 207 213 222 165 182 218 208 179 127 166 178 185 192 189 188 190 198 210 206 192 186 184 180 177 181 182 188 176 176 177 163 155 150 142 143 144 144 143 145 141 137 133 123 129 130 126
248 247 256 260 259 262 262 261 260 254 253 251 248 248 250 248 243 241 244 258 271 274 271 278 262 212 207 206 214 211 210 203 188 210 214 160 175 195 209 192 192 195 192 196 203 212 203 193 197 190 185 182 184 186 177 176 175 177 169 165 151 153 156 149 148 147 145 142 141 149 151 138 130 130
247 254 250 250 253 248 250 256 258 256 253 248 247 244 243 242 243 241 247 258 265 270 266 262 258 248 202 234 196 214 210 215 193 194 213 198 184 215 211 206 188 193 195 199 199 195 190 193 200 197 187 185 184 184 178 168 176 173 171 141 138 163 170 163 160 162 153 148 154 163 150 132 135 136
240 245 248 247 246 250 250 248 248 252 252 251 251 249 247 249 247 239 239 245 252 260 264 262 261 245 218 232 208 213 219 214 199 205 213 206 204 211 216 215 207 176 193 196 191 186 185 188 192 192 195 188 183 180 179 165 140 128 122 129 148 178 179 168 165 167 162 158 163 163 153 148 144 139
235 238 244 247 250 250 253 256 259 255 254 254 254 256 254 253 256 259 250 234 243 255 265 259 263 251 225 221 220 206 210 215 204 211 209 212 210 212 214 219 211 175 188 191 192 188 183 183 184 186 190 184 184 175 141 132 134 135 139 145 166 182 171 165 181 179 168 165 160 167 166 151 148 145
245 249 249 250 252 253 254 249 250 252 252 251 255 253 249 250 248 246 246 247 240 247 253 258 254 249 232 225 231 214 216 199 195 201 215 211 212 212 213 211 216 172 178 185 194 191 186 183 182 183 187 180 154 141 143 142 143 146 150 158 170 171 166 179 191 174 162 177 160 170 175 152 149 149
238 243 248 253 255 257 256 257 256 257 259 261 257 256 262 260 256 248 245 245 243 244 249 254 256 239 233 229 227 221 216 207 204 208 216 213 215 206 201 207 212 195 182 194 198 193 191 188 183 180 171 156 152 151 149 150 150 153 157 161 161 159 159 158 149 146 155 158 154 157 154 144 141 149
241 241 244 245 247 251 256 257 258 259 256 250 261 271 265 258 257 254 249 243 238 237 246 249 249 251 237 222 222 205 201 213 211 212 209 212 213 216 213 204 214 189 185 211 209 212 209 192 187 167 164 161 157 153 151 153 155 155 160 160 158 155 153 148 142 141 142 141 144 144 139 143 149 159
244 244 245 245 248 247 245 246 249 252 256 256 250 248 259 261 258 258 256 252 246 240 244 249 250 245 242 222 224 205 198 206 215 215 212 211 204 212 214 210 209 209 192 209 208 189 180 179 183 156 162 161 159 160 162 165 164 162 160 163 160 157 155 151 145 143 142 141 149 152 152 155 159 162
246 248 247 246 247 245 243 248 255 262 275 263 257 249 249 256 254 252 265 272 281 272 256 250 245 245 234 213 205 201 202 208 215 211 217 222 214 205 205 211 215 211 201 213 214 207 209 208 200 189 189 177 170 173 183 177 175 169 163 164 158 149 153 152 147 144 141 138 138 132 129 123 126 139
251 248 252 258 256 244 238 234 237 244 250 254 258 267 264 253 258 260 243 246 247 261 254 245 253 247 245 234 210 212 211 217 219 215 212 220 217 199 204 207 210 206 207 212 213 211 205 206 203 205 208 192 183 187 193 192 187 173 165 162 159 157 152 149 149 147 143 141 135 127 121 116 107 96
263 271 269 260 254 247 237 237 235 241 244 243 244 246 249 256 251 250 262 252 245 253 261 264 252 256 259 254 233 217 220 215 217 220 215 221 211 200 193 204 208 204 201 211 209 213 204 204 209 204 213 200 189 199 197 185 175 167 166 164 163 160 155 152 147 147 145 141 136 131 127 122 115 110
258 265 263 276 290 283 287 274 265 259 244 241 243 242 243 245 248 252 252 261 255 258 260 272 284 278 278 270 248 232 221 216 213 215 215 210 214 204 204 210 210 202 198 203 208 213 207 205 211 208 209 205 195 202 188 166 161 163 168 166 165 164 161 154 148 146 141 135 130 130 128 123 121 120
252 258 283 276 262 254 269 274 261 259 272 261 238 236 241 243 243 241 239 240 248 256 250 239 250 242 250 269 271 247 237 216 213 209 212 210 211 209 212 222 224 196 188 196 204 210 204 201 202 214 204 205 196 189 148 148 155 163 167 165 167 166 162 156 154 148 142 135 134 137 135 128 124 126
272 269 266 264 258 260 263 258 259 271 264 265 272 264 255 251 238 230 232 237 238 239 248 249 244 240 237 242 249 260 254 243 223 208 213 213 210 209 218 222 226 178 172 193 195 208 201 196 202 214 203 189 189 170 151 150 157 162 162 164 169 168 164 158 153 147 141 137 141 142 142 138 131 130
257 259 261 257 264 274 270 272 266 259 252 256 259 260 263 259 257 251 241 230 227 230 233 240 245 245 240 234 238 244 226 234 238 221 220 209 202 203 218 222 229 183 175 183 188 204 201 194 204 207 195 189 181 155 155 156 160 164 165 163 159 163 166 158 154 147 143 141 142 146 146 144 139 137
262 261 254 262 254 251 255 264 273 272 278 275 272 268 265 265 266 264 258 251 244 242 242 243 250 252 248 248 242 235 228 240 257 249 226 60 116 190 200 221 172 178 185 192 194 203 202 196 204 198 188 175 170 153 157 160 161 162 159 161 166 169 161 159 154 149 147 145 144 146 148 148 144 146
258 259 257 256 267 273 268 41 24 359 314 268 268 267 268 267 265 264 264 239 236 241 243 245 247 254 270 276 273 260 237 242 263 257 212 187 163 168 212 225 202 214 194 201 207 207 191 188 188 168 169 167 160 161 156 159 160 156 163 168 162 159 162 162 162 158 153 150 146 147 155 155 153 151
267 269 274 273 272 273 292 33 17 6 310 264 263 267 265 264 262 263 263 266 256 230 240 244 245 250 257 264 272 276 270 261 260 256 252 207 179 195 208 216 224 223 218 213 202 201 193 164 162 140 147 131 148 142 145 154 165 165 167 165 162 165 172 168 164 160 159 156 150 151 170 166 158 163
272 277 276 334 39 26 22 8 8 350 334 289 284 279 278 275 274 272 277 278 279 278 278 265 266 268 257 254 258 267 271 238 214 220 247 216 185 207 219 222 218 230 227 216 190 202 185 154 171 145 146 181 179 168 161 162 163 168 167 164 167 169 167 169 162 163 163 163 154 161 180 174 173 179
282 283 279 117 82 57 20 355 343 334 327 295 286 289 279 280 277 305 326 323 314 298 289 286 283 277 277 275 265 267 268 264 239 219 210 209 189 213 228 227 215 220 224 169 185 208 197 164 174 180 168 149 178 186 166 170 166 164 161 162 165 171 173 169 170 171 170 168 164 171 185 184 194 190
288 282 287 292 103 58 22 345 334 321 316 305 288 280 270 272 318 336 298 299 301 290 284 284 285 283 281 275 266 265 268 268 266 245 215 201 196 212 219 220 221 232 232 175 180 193 163 178 175 168 160 178 131 154 177 159 166 173 170 168 167 173 169 168 168 175 179 178 170 179 191 193 205 226
289 305 324 325 65 32 6 344 332 317 308 304 286 271 293 321 319 299 292 289 284 273 281 282 281 282 279 282 282 276 268 259 254 253 243 219 200 210 220 219 218 230 236 178 176 188 141 175 177 174 172 154 171 156 149 174 170 171 171 175 170 169 171 169 170 174 175 179 183 188 197 199 209 223
294 292 307 305 50 11 353 324 309 300 295 288 280 327 320 305 301 286 269 276 275 274 274 276 280 283 283 280 276 270 271 266 258 250 232 231 221 218 228 235 238 238 238 173 187 181 175 176 164 175 183 169 132 161 163 161 175 171 170 171 174 173 172 167 171 173 176 178 184 191 201 205 211 231
298 290 308 356 353 337 321 298 288 285 276 273 302 309 302 291 276 262 271 272 275 280 282 278 277 274 277 282 286 299 323 335 336 325 318 302 275 256 244 236 235 239 235 163 186 183 184 173 178 193 173 162 164 170 183 184 138 168 171 168 173 173 172 174 173 175 177 176 184 186 195 200 216 219
309 5 340 321 307 298 294 282 276 268 258 251 259 275 280 276 269 276 290 294 295 290 290 289 291 294 302 320 332 333 319 310 305 300 295 288 284 264 253 250 245 241 232 163 180 182 188 186 180 179 166 179 175 174 150 172 167 171 168 166 171 174 172 174 171 175 174 172 181 192 193 201 198 207
300 295 285 275 268 264 258 269 279 298 311 297 285 268 266 300 313 314 310 309 302 301 305 311 312 311 314 309 310 307 300 295 293 296 291 290 287 281 273 263 256 254 220 171 185 189 191 184 163 168 160 153 157 143 145 138 144 148 161 155 142 132 176 174 177 183 181 180 183 195 197 200 201 195
243 233 228 277 301 298 303 284 276 271 284 271 268 284 314 319 319 322 323 319 314 311 309 307 307 308 307 308 302 303 311 306 303 309 311 304 293 294 294 285 275 246 57 178 190 186 177 162 151 157 156 152 137 131 135 138 132 152 162 166 167 176 177 173 171 185 190 185 185 200 193 192 197 193
295 297 273 235 234 242 246 244 250 262 292 293 287 296 314 326 322 319 312 303 308 317 318 311 308 309 311 313 317 313 312 316 318 314 309 308 305 304 311 296 299 88 73 69 133 151 156 143 150 157 157 152 145 136 132 146 154 159 172 172 166 146 155 176 174 184 192 191 196 201 195 190 193 191
286 263 258 267 261 258 259 272 273 263 260 265 248 231 288 317 303 321 330 329 328 327 327 324 323 321 325 322 324 323 319 329 330 345 334 322 318 316 307 329 58 121 116 111 99 96 99 99 102 117 117 119 135 141 143 151 166 168 166 165 163 167 166 176 174 176 186 199 207 197 195 198 196 192
275 260 267 270 266 270 274 279 280 275 283 297 309 315 174 206 298 328 298 303 319 316 301 310 316 325 325 325 330 329 332 333 334 357 339 338 339 333 359 49 81 104 120 117 116 114 113 111 106 104 101 99 108 117 146 156 162 172 169 159 164 164 168 167 175 178 194 203 201 197 197 201 201 197
236 254 261 267 265 274 277 282 303 308 292 311 315 314 315 308 332 326 318 337 318 302 291 301 308 323 326 327 331 328 333 332 329 351 4 11 358 15 30 101 113 114 118 121 124 130 127 127 122 118 117 126 121 84 30 83 156 157 154 158 162 166 166 174 175 183 196 207 204 203 200 203 204 200
270 266 266 268 281 302 298 316 311 310 320 313 304 311 313 318 329 333 328 333 310 312 323 325 328 330 325 330 331 330 334 332 342 349 11 10 15 21 41 69 105 115 124 131 133 136 139 140 139 140 144 148 153 151 157 59 175 156 159 166 171 173 166 164 175 183 196 205 202 199 201 203 204 200
277 277 267 276 314 323 315 317 327 334 322 325 315 317 319 310 319 347 4 300 296 316 328 315 324 327 330 341 331 342 340 346 349 351 3 17 25 31 60 77 99 113 122 131 140 146 152 153 149 146 148 152 160 167 160 154 186 202 168 161 168 172 164 161 173 190 201 204 200 201 202 206 206 203
277 274 289 280 285 292 293 303 316 301 314 317 313 304 305 307 312 318 263 259 310 320 320 317 326 330 334 343 333 346 345 351 353 2 359 11 18 30 45 87 107 123 128 137 146 154 159 160 161 162 162 162 167 167 156 166 175 195 203 173 167 167 166 164 177 192 201 202 200 200 204 211 212 205
263 282 289 300 314 308 314 315 313 317 318 312 315 311 309 304 301 305 299 304 323 316 310 312 331 336 318 328 326 335 360 354 353 4 2 11 19 30 43 95 118 126 139 144 153 161 167 168 173 174 179 177 178 170 163 170 182 180 186 200 162 165 180 182 186 192 192 190 198 203 210 215 211 65
287 278 275 283 286 298 303 314 312 309 310 310 312 323 317 299 304 300 291 302 320 302 291 301 324 306 303 324 315 313 41 357 12 6 4 2 11 33 85 107 126 142 151 156 161 165 178 183 182 179 178 180 164 138 130 130 140 154 172 207 217 188 180 190 194 188 190 192 193 199 203 205 207 192
267 264 273 274 288 293 301 302 307 305 303 302 294 285 260 305 289 275 292 318 296 281 284 302 304 303 311 319 318 327 332 345 350 353 20 37 14 353 78 141 153 166 161 167 173 172 183 185 176 172 166 145 141 135 137 147 158 164 179 188 211 225 223 216 199 191 194 188 193 199 201 201 207 205
262 261 258 266 275 293 295 302 305 307 298 300 306 293 273 250 251 64 289 218 232 241 272 277 284 283 282 277 300 304 294 325 319 298 280 301 91 103 241 245 148 195 181 175 177 176 149 139 155 168 169 158 151 160 161 173 173 177 177 179 187 209 228 247 259 273 263 193 192 200 202 201 203 212
289 280 279 275 274 275 283 291 290 293 305 317 298 290 285 280 266 207 256 226 209 258 273 280 281 282 301 304 309 313 309 304 298 300 312 268 231 235 229 245 199 196 205 171 162 160 155 152 154 179 176 176 179 194 185 182 182 171 177 180 184 189 206 227 243 249 261 302 302 233 210 202 198 208
293 285 281 283 285 283 278 278 283 282 284 283 285 277 270 277 276 274 253 276 281 276 278 282 296 302 298 289 276 281 279 298 314 297 268 273 287 271 250 187 187 202 166 141 155 161 162 165 174 174 178 185 187 207 225 188 188 177 178 188 178 180 194 200 212 236 252 245 248 263 280 319 9 333
316 311 308 303 297 293 287 285 287 294 298 298 293 290 289 283 282 284 284 276 273 264 263 255 256 257 255 258 265 273 279 20 276 272 284 276 242 251 275 280 193 200 165 152 159 168 173 175 181 191 196 198 200 207 221 223 208 181 179 181 189 186 190 192 199 207 214 222 215 219 243 219 149 74